Flag for Kenya Weather past 2 weeks in Nairobi, Kenya

Now
81 °F

Partly sunny.


Feels Like: 80 °F
Forecast: 56 / 76 °F
Wind: 12 mph from East

Location: Nairobi / Wilson

Current Time: Sep 30, 2014 at 6:07:59 PM

Latest Report: Sep 30, 2014 at 5:00 PM


Visibility: N/A

Pressure: 30.04 "Hg

Humidity: 32%

Dew point: 48 °F

Location of NairobiLocation

Historic Weather in Nairobi — Graph

°F

Nairobi temperature yesterday

Maximum temperature yesterday: 81 °F (at 3:00 PM)
Minimum temperature yesterday: 59 °F (at 7:00 AM)
Average temperature yesterday: 71 °F

Past Weeks' High & Low Weather Summary

 TemperatureHumidityPressure
High82 °F (Sep 20, 3:00 PM)100% (Sep 30, 5:00 AM)30.27 "Hg (Sep 30, 5:00 AM)
Low54 °F (Sep 22, 6:00 AM)30% (Sep 20, 3:00 PM)30.04 "Hg (Sep 17, 4:00 PM)
Average68 °F64%30.15 "Hg
* Reported Sep 15 4:00 PM — Sep 30 4:00 PM, Nairobi, Weather by CustomWeather, © 2014

Note: Actual official high and low records may vary slightly from our data, if they occured in-between our weather recording intervals... More about our weather records

Advertising

Nairobi weather history for previous 24 hours

 ConditionsComfort  
Time TempWeatherWind HumidityBarometerVisibility
4:00 PM
Sep 30
81 °FScattered clouds.17 mph30%30.04 "HgN/A
3:00 PM81 °FPartly sunny.9 mph39%30.07 "HgN/A
2:00 PM73 °FPartly sunny.7 mph57%30.09 "HgN/A
1:00 PM73 °FPartly sunny.6 mph57%30.12 "HgN/A
12:00 PM72 °FPartly sunny.9 mph61%30.15 "HgN/A
11:00 AM68 °FPartly sunny.No wind73%30.21 "Hg5 mi
10:00 AM63 °FPartly sunny.7 mph83%30.21 "Hg5 mi
9:00 AM63 °FPartly sunny.6 mph83%30.18 "Hg5 mi
8:00 AM59 °FPartly sunny.No wind100%30.18 "Hg5 mi
7:00 AM57 °FScattered clouds.No wind94%30.15 "HgN/A
6:00 AM61 °FPassing clouds.No wind94%30.15 "HgN/A
5:00 AM61 °FPassing clouds.No wind100%30.12 "HgN/A
4:00 AM63 °FPassing clouds.No wind88%30.12 "HgN/A
3:00 AM63 °FPassing clouds.No wind88%30.12 "HgN/A
2:00 AM64 °FPassing clouds.No wind73%30.12 "HgN/A
1:00 AM64 °FPassing clouds.No wind73%30.15 "HgN/A
12:00 AM64 °FPassing clouds.No wind78%30.15 "HgN/A
11:00 PM
Sep 29
66 °FPassing clouds.No wind73%30.18 "HgN/A
10:00 PM66 °FPassing clouds.No wind73%30.15 "HgN/A
9:00 PM66 °FPassing clouds.No wind73%30.15 "HgN/A
7:00 PM70 °FRain. Passing clouds.6 mph60%30.12 "HgN/A
6:00 PM73 °FRain. Partly sunny.No wind53%30.09 "HgN/A
Weather by CustomWeather, © 2014

See weather overviewHow to use our weather pages